Meteo Giornale » Osservazioni meteo Stati Uniti (USA) » Washington DC Reagan National

ore: 11:41 - Osservazioni Meteo Washington DC Reagan National
Lat. 38° 50' N Lon. 77° 2' W Alt. 4 metri s.l.m.

molto_nuvoloso

33 °C

Molto Nuvoloso

Temp. 24 Ore

25 °C

33 °C

Ovest

14.8 Km/h

Dew point 22 °C

Umidità 52 %

Visibilità  10 Km

Il sole sorge alle ore 06:37

Il sole tramonta alle ore 19:38

Data e Ora Cielo e Fenomeni T °C DP °C Um. % Pres. hPa Vis. km Vento km/h
Oggi h: 11:41 molto_nuvoloso Molto Nuvoloso 33 22 52 1016 10 O 14.8
Oggi h: 10:52 molto_nuvoloso Molto Nuvoloso 32 21 52 1016 10 O/SO 14.8
Oggi h: 09:52 nuvoloso Nuvoloso 29 24 74 1017 10 S 16.7
Oggi h: 08:52 molto_nuvoloso Molto Nuvoloso 28 24 78 1017 10 S/SE 13
Oggi h: 07:52 molto_nuvoloso Molto Nuvoloso 26 23 83 1017 10 S 11.1
Oggi h: 06:52 molto_nuvoloso Molto Nuvoloso 26 22 78 1017 10 N 5.5
Oggi h: 05:52 nuvoloso Nuvoloso 25 23 88 1016 10 S 7.4
Oggi h: 04:52 coperto Coperto 25 23 88 1016 10 S 9.3
Oggi h: 03:52 coperto Coperto 26 23 83 1016 10 S 9.3
Oggi h: 02:52 coperto Coperto 26 23 83 1017 10 S 9.3
Oggi h: 01:52 molto_nuvoloso Molto Nuvoloso 26 23 83 1017 10 S/SO 7.4
Oggi h: 00:52 coperto Coperto 26 23 83 1018 10 S 9.3
Ieri h: 23:52 molto_nuvoloso Molto Nuvoloso 26 23 83 1018 10 N 5.5
Ieri h: 22:52 molto_nuvoloso Molto Nuvoloso 26 23 83 1018 10 S 7.4
Ieri h: 21:52 molto_nuvoloso Molto Nuvoloso 27 23 78 1018 10 S 7.4
Ieri h: 20:52 molto_nuvoloso Molto Nuvoloso 27 23 78 1018 10 S/SE 9.3
Ieri h: 19:52 molto_nuvoloso Molto Nuvoloso 28 24 78 1017 10 SE 11.1
Ieri h: 18:52 molto_nuvoloso Molto Nuvoloso 29 23 70 1018 10 N 5.5
Ieri h: 17:52 molto_nuvoloso Molto Nuvoloso 29 22 66 1018 10 N 5.5
Ieri h: 16:52 molto_nuvoloso Molto Nuvoloso 30 22 62 1018 10 N 11.1
Ieri h: 15:52 nuvoloso Nuvoloso 30 22 62 1018 10 N 9.3
Ieri h: 14:52 coperto Coperto 31 21 55 1018 10 N/NE 9.3
Ieri h: 13:52 molto_nuvoloso Molto Nuvoloso 31 22 58 1018 10 N/NE 7.4
Ieri h: 12:52 molto_nuvoloso Molto Nuvoloso 29 22 66 1019 10 N 5.5
Ieri h: 12:39 molto_nuvoloso Molto Nuvoloso 30 22 62 1019 10 N 5.5
Ieri h: 12:10 molto_nuvoloso Molto Nuvoloso 29 22 66 1019 10 N/NE 9.3
Ieri h: 11:52 molto_nuvoloso Molto Nuvoloso 29 23 70 1019 10 N 5.5